TimeCET,TemperatureF,Dew PointF,Humidity,Sea Level PressureIn,VisibilityMPH,Wind Direction,Wind SpeedMPH,Gust SpeedMPH,PrecipitationIn,Events,Conditions,WindDirDegrees,DateUTC
12:20 AM,39.2,37.4,93,30.33,3.7,WSW,8.1,-,N/A,,Mostly Cloudy,250,2013-01-07 23:20:00
12:50 AM,39.2,37.4,93,30.30,3.7,WSW,5.8,-,N/A,,Mostly Cloudy,240,2013-01-07 23:50:00
1:00 AM,39,38,92,30.35,4,WSW,6.7,,,,Overcast,240,2013-01-08 00:00:00
1:20 AM,39.2,37.4,93,30.33,2.8,WSW,6.9,-,N/A,,Mostly Cloudy,250,2013-01-08 00:20:00
1:50 AM,39.2,37.4,93,30.33,3.1,West,6.9,-,N/A,,Mostly Cloudy,260,2013-01-08 00:50:00
2:20 AM,39.2,37.4,93,30.30,3.1,SW,10.4,-,N/A,,Mostly Cloudy,230,2013-01-08 01:20:00
2:50 AM,39.2,37.4,93,30.30,5.0,WSW,9.2,-,N/A,,Mostly Cloudy,240,2013-01-08 01:50:00
3:20 AM,39.2,37.4,93,30.30,3.1,SSW,11.5,-,N/A,,Mostly Cloudy,210,2013-01-08 02:20:00
3:50 AM,39.2,37.4,93,30.30,3.1,SSW,9.2,-,N/A,,Mostly Cloudy,200,2013-01-08 02:50:00
4:00 AM,38,37,93,30.34,3,SSW,8.9,,,,Mist,200,2013-01-08 03:00:00
4:20 AM,39.2,37.4,93,30.30,2.5,SW,9.2,-,N/A,,Mostly Cloudy,230,2013-01-08 03:20:00
4:50 AM,39.2,37.4,93,30.30,1.7,SW,9.2,-,N/A,,Mostly Cloudy,230,2013-01-08 03:50:00
5:20 AM,39.2,37.4,93,30.30,1.4,SW,9.2,-,N/A,,Mostly Cloudy,230,2013-01-08 04:20:00
5:50 AM,39.2,37.4,93,30.30,1.7,SW,9.2,-,N/A,,Mostly Cloudy,220,2013-01-08 04:50:00
6:20 AM,39.2,37.4,93,30.27,2.2,SSW,10.4,-,N/A,,Mostly Cloudy,200,2013-01-08 05:20:00
6:50 AM,39.2,39.2,100,30.30,-9999.0,SW,10.4,-,N/A,,Mostly Cloudy,220,2013-01-08 05:50:00
7:20 AM,39.2,37.4,93,30.30,-9999.0,SW,10.4,-,N/A,,Mostly Cloudy,220,2013-01-08 06:20:00
7:50 AM,39.2,37.4,93,30.30,-9999.0,SW,9.2,-,N/A,,Mostly Cloudy,220,2013-01-08 06:50:00
8:20 AM,41.0,37.4,87,30.30,-9999.0,SW,10.4,-,N/A,,Mostly Cloudy,220,2013-01-08 07:20:00
8:50 AM,41.0,39.2,93,30.30,-9999.0,SW,10.4,-,N/A,,Mostly Cloudy,220,2013-01-08 07:50:00
9:20 AM,41.0,39.2,93,30.30,-9999.0,SW,10.4,-,N/A,,Mostly Cloudy,230,2013-01-08 08:20:00
9:50 AM,41.0,37.4,87,30.30,-9999.0,SW,10.4,-,N/A,,Mostly Cloudy,230,2013-01-08 08:50:00
10:00 AM,40,38,91,30.35,3,SW,11.2,,,,Mist,230,2013-01-08 09:00:00
10:20 AM,41.0,39.2,93,30.30,-9999.0,SW,9.2,-,N/A,,Mostly Cloudy,220,2013-01-08 09:20:00
10:50 AM,41.0,39.2,93,30.30,-9999.0,SW,10.4,-,N/A,,Mostly Cloudy,220,2013-01-08 09:50:00
11:20 AM,41.0,39.2,93,30.30,3.1,SSW,10.4,-,N/A,,Mostly Cloudy,210,2013-01-08 10:20:00
11:50 AM,41.0,39.2,93,30.30,3.1,SW,10.4,-,N/A,,Mostly Cloudy,220,2013-01-08 10:50:00
12:20 PM,42.8,39.2,87,30.30,3.7,SW,10.4,-,N/A,,Mostly Cloudy,220,2013-01-08 11:20:00
12:50 PM,42.8,39.2,87,30.30,5.0,SW,10.4,-,N/A,,Mostly Cloudy,220,2013-01-08 11:50:00
1:20 PM,42.8,39.2,87,30.30,5.0,SW,11.5,-,N/A,,Mostly Cloudy,230,2013-01-08 12:20:00
1:50 PM,42.8,39.2,87,30.30,5.6,SW,10.4,-,N/A,,Mostly Cloudy,230,2013-01-08 12:50:00
2:20 PM,42.8,39.2,87,30.30,5.6,SW,11.5,-,N/A,,Mostly Cloudy,230,2013-01-08 13:20:00
2:50 PM,42.8,39.2,87,30.30,6.2,WSW,10.4,-,N/A,,Mostly Cloudy,240,2013-01-08 13:50:00
3:20 PM,42.8,39.2,87,30.30,6.2,SW,11.5,-,N/A,,Mostly Cloudy,230,2013-01-08 14:20:00
3:50 PM,42.8,39.2,87,30.30,6.2,SW,9.2,-,N/A,,Mostly Cloudy,230,2013-01-08 14:50:00
4:00 PM,43,39,81,30.32,7,SW,8.9,,,,Mostly Cloudy,230,2013-01-08 15:00:00
4:20 PM,42.8,39.2,87,30.30,6.2,SW,9.2,-,N/A,,Mostly Cloudy,230,2013-01-08 15:20:00
4:50 PM,42.8,39.2,87,30.30,6.2,SW,10.4,-,N/A,,Mostly Cloudy,220,2013-01-08 15:50:00
5:20 PM,42.8,39.2,87,30.30,6.2,SW,11.5,-,N/A,,Mostly Cloudy,220,2013-01-08 16:20:00
5:50 PM,42.8,39.2,87,30.30,6.2,SW,11.5,-,N/A,,Mostly Cloudy,220,2013-01-08 16:50:00
6:20 PM,42.8,39.2,87,30.30,6.2,SW,11.5,-,N/A,,Mostly Cloudy,220,2013-01-08 17:20:00
6:50 PM,42.8,37.4,81,30.30,6.2,SW,11.5,-,N/A,,Mostly Cloudy,220,2013-01-08 17:50:00
7:00 PM,42,38,82,30.32,7,SW,11.2,,,,Mostly Cloudy,220,2013-01-08 18:00:00
7:20 PM,42.8,37.4,81,30.30,6.2,SW,11.5,-,N/A,,Mostly Cloudy,220,2013-01-08 18:20:00
7:50 PM,42.8,37.4,81,30.30,6.2,SW,10.4,-,N/A,,Mostly Cloudy,220,2013-01-08 18:50:00
8:20 PM,41.0,37.4,87,30.30,6.2,SSW,13.8,-,N/A,,Mostly Cloudy,210,2013-01-08 19:20:00
8:50 PM,41.0,35.6,81,30.30,6.2,SSW,16.1,-,N/A,,Mostly Cloudy,210,2013-01-08 19:50:00
9:20 PM,41.0,35.6,81,30.30,6.2,SSW,15.0,-,N/A,,Mostly Cloudy,210,2013-01-08 20:20:00
9:50 PM,41.0,35.6,81,30.30,6.2,SSW,11.5,-,N/A,,Mostly Cloudy,200,2013-01-08 20:50:00
10:00 PM,40,36,78,30.33,8,SSW,11.2,,,,Overcast,200,2013-01-08 21:00:00
10:20 PM,41.0,35.6,81,30.27,6.2,South,9.2,-,N/A,,Mostly Cloudy,190,2013-01-08 21:20:00
10:50 PM,39.2,35.6,87,30.27,6.2,South,9.2,-,N/A,,Mostly Cloudy,190,2013-01-08 21:50:00
11:20 PM,39.2,35.6,87,30.27,6.2,South,10.4,-,N/A,,Mostly Cloudy,190,2013-01-08 22:20:00
11:50 PM,39.2,35.6,87,30.27,6.2,SSW,10.4,-,N/A,,Mostly Cloudy,200,2013-01-08 22:50:00